Location: Warszawa
(52.2500°N, 21.0000°E)
Time: 13:15:47
(UTC+02:00)

Vanguard 2 - Pass Details

Date: 13 February 2023
Orbit: 553 x 2927 km, 32.9° (Epoch: 27 March)

Event Time Altitude Azimuth Distance (km) Brightness Sun altitude
Rises 00:25:02 0° 264° (W) 5,720 - -50.6°
Reaches altitude 10° 00:30:02 10° 249° (WSW) 5,075 - -50.5°
Maximum altitude 00:39:32 20° 210° (SSW) 4,761 - -50.0°
Drops below altitude 10° 00:50:13 10° 173° (S) 5,751 - -49.4°
Sets 00:56:36 0° 159° (SSE) 6,711 - -49.0°
